Location: Newark
(48.1500°N, 2.9667°W)
Time: 01:47:22
(UTC+00:00)

Transit 2A - Pass Details

Date: 31 January 2020
Orbit: 600 x 959 km, 66.7° (Epoch: 19 February)

Event Time Altitude Azimuth Distance (km) Brightness Sun altitude
Rises 01:23:13 0° 330° (NNW) 2,934 - -57.2°
Reaches altitude 10° 01:26:05 10° 350° (N) 2,069 - -57.0°
Maximum altitude 01:29:22 19° 35° (NE) 1,628 - -56.7°
Drops below altitude 10° 01:32:50 10° 79° (E) 2,201 - -56.5°
Sets 01:35:59 0° 98° (E) 3,196 - -56.2°
